TimeCST,TemperatureF,Dew PointF,Humidity,Sea Level PressureIn,VisibilityMPH,Wind Direction,Wind SpeedMPH,Gust SpeedMPH,PrecipitationIn,Events,Conditions,WindDirDegrees,DateUTC
12:15 AM,5.0,-0.4,78,30.33,10.0,North,9.2,-,N/A,,Clear,360,2012-12-26 06:15:00
12:35 AM,5.0,-0.4,78,30.33,10.0,North,9.2,-,N/A,,Clear,350,2012-12-26 06:35:00
12:55 AM,5.0,-0.4,78,30.32,10.0,North,9.2,-,N/A,,Clear,10,2012-12-26 06:55:00
1:15 AM,3.2,-2.2,78,30.32,10.0,North,9.2,-,N/A,,Clear,360,2012-12-26 07:15:00
1:35 AM,3.2,-2.2,78,30.32,10.0,NNW,10.4,-,N/A,,Clear,340,2012-12-26 07:35:00
1:55 AM,3.2,-2.2,78,30.32,10.0,NNW,9.2,-,N/A,,Clear,340,2012-12-26 07:55:00
2:15 AM,3.2,-2.2,78,30.32,10.0,NNW,10.4,-,N/A,,Clear,340,2012-12-26 08:15:00
2:35 AM,3.2,-2.2,78,30.33,10.0,NNW,10.4,-,N/A,,Clear,340,2012-12-26 08:35:00
2:55 AM,3.2,-2.2,78,30.33,10.0,North,10.4,-,N/A,,Scattered Clouds,350,2012-12-26 08:55:00
3:15 AM,3.2,-2.2,78,30.33,10.0,NNW,10.4,-,N/A,,Mostly Cloudy,340,2012-12-26 09:15:00
3:35 AM,3.2,-2.2,78,30.32,10.0,NNW,11.5,-,N/A,,Overcast,340,2012-12-26 09:35:00
3:55 AM,3.2,-2.2,78,30.31,10.0,North,12.7,-,N/A,,Overcast,350,2012-12-26 09:55:00
4:15 AM,3.2,-2.2,78,30.30,10.0,North,11.5,-,N/A,,Overcast,350,2012-12-26 10:15:00
4:35 AM,3.2,-2.2,78,30.30,10.0,North,10.4,-,N/A,,Scattered Clouds,350,2012-12-26 10:35:00
4:55 AM,1.4,-4.0,78,30.29,10.0,North,10.4,-,N/A,,Clear,350,2012-12-26 10:55:00
5:15 AM,1.4,-4.0,78,30.27,10.0,North,9.2,-,N/A,,Clear,350,2012-12-26 11:15:00
5:35 AM,1.4,-4.0,78,30.28,10.0,NNW,8.1,-,N/A,,Clear,340,2012-12-26 11:35:00
5:55 AM,1.4,-4.0,78,30.27,10.0,North,10.4,-,N/A,,Clear,350,2012-12-26 11:55:00
6:15 AM,1.4,-4.0,78,30.26,10.0,North,9.2,-,N/A,,Clear,350,2012-12-26 12:15:00
6:35 AM,1.4,-4.0,78,30.25,10.0,North,9.2,-,N/A,,Clear,350,2012-12-26 12:35:00
6:55 AM,1.4,-4.0,78,30.25,10.0,North,9.2,-,N/A,,Clear,350,2012-12-26 12:55:00
7:15 AM,1.4,-4.0,78,30.25,10.0,North,8.1,-,N/A,,Clear,350,2012-12-26 13:15:00
7:35 AM,1.4,-4.0,78,30.25,10.0,North,6.9,-,N/A,,Clear,350,2012-12-26 13:35:00
7:55 AM,1.4,-4.0,78,30.25,10.0,NNW,8.1,-,N/A,,Clear,340,2012-12-26 13:55:00
8:15 AM,1.4,-4.0,78,30.24,10.0,NNW,9.2,-,N/A,,Clear,340,2012-12-26 14:15:00
8:35 AM,1.4,-4.0,78,30.24,10.0,NNW,5.8,-,N/A,,Clear,340,2012-12-26 14:35:00
8:55 AM,3.2,-4.0,72,30.25,10.0,NNW,6.9,-,N/A,,Clear,340,2012-12-26 14:55:00
9:15 AM,3.2,-4.0,72,30.25,10.0,North,6.9,-,N/A,,Clear,360,2012-12-26 15:15:00
9:35 AM,3.2,-2.2,78,30.26,10.0,North,9.2,-,N/A,,Clear,10,2012-12-26 15:35:00
9:55 AM,5.0,-2.2,72,30.27,10.0,North,8.1,-,N/A,,Clear,350,2012-12-26 15:55:00
10:15 AM,5.0,-0.4,78,30.28,10.0,North,9.2,-,N/A,,Clear,360,2012-12-26 16:15:00
10:35 AM,6.8,-0.4,72,30.27,10.0,North,10.4,-,N/A,,Clear,350,2012-12-26 16:35:00
10:55 AM,6.8,1.4,79,30.27,10.0,North,6.9,-,N/A,,Clear,350,2012-12-26 16:55:00
11:15 AM,8.6,1.4,73,30.26,7.0,North,6.9,-,N/A,,Clear,360,2012-12-26 17:15:00
11:35 AM,8.6,1.4,73,30.26,10.0,NNW,6.9,-,N/A,,Clear,340,2012-12-26 17:35:00
11:55 AM,10.4,3.2,73,30.24,10.0,NNW,6.9,-,N/A,,Clear,340,2012-12-26 17:55:00
12:35 PM,12.2,5.0,73,30.22,10.0,North,9.2,-,N/A,,Clear,360,2012-12-26 18:35:00
12:55 PM,12.2,5.0,73,30.21,10.0,North,6.9,-,N/A,,Clear,10,2012-12-26 18:55:00
1:15 PM,14.0,6.8,73,30.20,10.0,NNE,9.2,-,N/A,,Clear,30,2012-12-26 19:15:00
1:35 PM,14.0,6.8,73,30.20,10.0,North,8.1,-,N/A,,Clear,360,2012-12-26 19:35:00
1:55 PM,15.8,6.8,68,30.19,10.0,North,8.1,-,N/A,,Clear,360,2012-12-26 19:55:00
2:15 PM,15.8,8.6,73,30.19,10.0,North,6.9,-,N/A,,Clear,10,2012-12-26 20:15:00
2:35 PM,15.8,8.6,73,30.20,10.0,North,5.8,-,N/A,,Clear,360,2012-12-26 20:35:00
2:55 PM,15.8,8.6,73,30.19,10.0,NNE,6.9,-,N/A,,Clear,20,2012-12-26 20:55:00
3:15 PM,15.8,8.6,73,30.18,10.0,NNE,9.2,-,N/A,,Clear,30,2012-12-26 21:15:00
3:35 PM,15.8,8.6,73,30.20,10.0,North,6.9,-,N/A,,Partly Cloudy,350,2012-12-26 21:35:00
3:55 PM,15.8,8.6,73,30.19,10.0,North,6.9,-,N/A,,Mostly Cloudy,10,2012-12-26 21:55:00
4:15 PM,15.8,10.4,79,30.19,10.0,NE,4.6,-,N/A,,Overcast,40,2012-12-26 22:15:00
4:35 PM,15.8,10.4,79,30.19,10.0,NE,5.8,-,N/A,,Overcast,50,2012-12-26 22:35:00
4:55 PM,15.8,10.4,79,30.19,10.0,NE,6.9,-,N/A,,Overcast,50,2012-12-26 22:55:00
5:15 PM,15.8,10.4,79,30.19,10.0,NE,4.6,-,N/A,,Overcast,40,2012-12-26 23:15:00
5:35 PM,15.8,10.4,79,30.19,10.0,NE,5.8,-,N/A,,Overcast,40,2012-12-26 23:35:00
5:55 PM,15.8,10.4,79,30.19,10.0,NNE,4.6,-,N/A,,Overcast,20,2012-12-26 23:55:00
6:15 PM,15.8,10.4,79,30.20,10.0,NE,6.9,-,N/A,,Overcast,40,2012-12-27 00:15:00
6:35 PM,15.8,10.4,79,30.21,10.0,NE,5.8,-,N/A,,Overcast,40,2012-12-27 00:35:00
6:55 PM,15.8,10.4,79,30.21,10.0,NE,4.6,-,N/A,,Overcast,40,2012-12-27 00:55:00
7:15 PM,15.8,10.4,79,30.21,10.0,NE,4.6,-,N/A,,Overcast,50,2012-12-27 01:15:00
7:35 PM,15.8,10.4,79,30.21,10.0,NE,5.8,-,N/A,,Overcast,50,2012-12-27 01:35:00
7:55 PM,14.0,10.4,86,30.20,10.0,NE,8.1,-,N/A,,Overcast,50,2012-12-27 01:55:00
8:15 PM,14.0,10.4,86,30.20,10.0,Calm,Calm,-,N/A,,Overcast,0,2012-12-27 02:15:00
8:35 PM,14.0,10.4,86,30.19,10.0,ENE,5.8,-,N/A,,Mostly Cloudy,60,2012-12-27 02:35:00
8:55 PM,14.0,10.4,86,30.17,10.0,ENE,8.1,-,N/A,,Mostly Cloudy,60,2012-12-27 02:55:00
9:15 PM,14.0,10.4,86,30.15,10.0,ENE,9.2,-,N/A,,Scattered Clouds,60,2012-12-27 03:15:00
9:35 PM,14.0,10.4,86,30.16,10.0,ENE,6.9,12.7,N/A,,Scattered Clouds,60,2012-12-27 03:35:00
9:55 PM,14.0,10.4,86,30.19,10.0,Calm,Calm,-,N/A,,Mostly Cloudy,0,2012-12-27 03:55:00
10:15 PM,12.2,10.4,92,30.19,9.0,Calm,Calm,-,N/A,,Mostly Cloudy,0,2012-12-27 04:15:00
10:35 PM,12.2,10.4,92,30.19,10.0,Calm,Calm,-,N/A,,Overcast,0,2012-12-27 04:35:00
10:55 PM,12.2,10.4,92,30.19,10.0,NE,4.6,-,N/A,,Overcast,50,2012-12-27 04:55:00
11:15 PM,12.2,10.4,92,30.18,10.0,NE,5.8,-,N/A,,Overcast,50,2012-12-27 05:15:00
11:35 PM,12.2,8.6,85,30.19,10.0,ENE,4.6,-,N/A,,Mostly Cloudy,70,2012-12-27 05:35:00
11:55 PM,12.2,8.6,85,30.18,10.0,Calm,Calm,-,N/A,,Overcast,0,2012-12-27 05:55:00